Погода в Туринске

Погода в Туринске : погода сейчас, прогноз погоды и архив. Всё, что Вы хотите узнать о погоде в Туринске!

Хотите узнать прогноз погоды в Туринске? Тогда Вам сюда: Погода в Туринске

Поиск расширенной информации на нашем сайте:

Полезная информация: офисные блоки на выгодных условиях аренда офиса в бизнес парке Московский шелк У метро Спортивная

Другие новости

Новости СМИ2

Главная страница сайта

Новости сайта

02.10.2013

Напоминаем, что на нашем новом сайте вы можете получить высокодетализированные прогнозы погоды по пунктам России, СНГ и мира (включающие важные для авиации метеовеличины, такие как направление и скорость ветра, видимость, явления погоды, количество и форма облачности, нижняя и верхняя граница облачности), а также ознакомиться с разнообразными материалами по авиационной метеорологии и подборкой полезных ссылок на эту тему.

Сайт Метеоцентр.Азия посвящён разработке технологий оптимизации авиаметеорологического обслуживания, включая проектирование и перспективное создание нескольких автоматизированных авиаметеорологических систем:
- система выпуска высокодетальных прогностических карт явлений погоды для нижнего воздушного пространства по России и ближнему зарубежью;
- система верификации прогнозов TAF (выпускаемых синоптиками официальных АМСГ РФ и ближнего зарубежья) и AUTOTAF (выпускаемых сайтом Метеоцентр.Азия) - выявление ошибок, онлайн-сопоставление с фактической погодой METAR, автоматическое внесение коррективов в прогнозы при резком отклонении фактической погоды от прогноза, подсчёт оправдываемости прогнозов по элементам и в целом;
- система обработки, анализа и отображения авиаметеорологической информации для применения провайдерами метеорологической информации.

Рекомендуем: газовые плиты aeg

Погода в Туринске - сегодня

Время (UTC), дата Ветер
(°,м/с) 
Видим.   Явления Облачность Т
(°С)
Тd
(°С)
f(%) Тe
(°С)
Pmin
(гПа)
dP
(гПа)
Po
(мм)
O2
(г/м3)
Тmin Tmax R s Состояние
почвы
18 16.01.17 280 (З) 1000 м    ясно 
-11.5 -13.1 88 -13  1035.9  0.3  767  324           
21 16.01.17 280 (З) 1000 м    ясно 
-14.2 -15.8 88 -14  1036.3  0.3  767  327           
00 17.01.17 280 (З) 1000 м    ясно 
-14.2 -16 86 -14  1036.7  0.4  767  327           
03 17.01.17 280 (З) 1000 м    ясно 
-14.8 -16.7 85 -15  1037  0.2  767  328  -14.9      59  равномерный
сухой снег
100% 
06 17.01.17 280 (З) 20000 м    ясно 
-12.8 -15.1 83 -13  1037.3  0.4  768  326           
09 17.01.17 тихо ()   20000 м    ясно 
-9.1 -12.3 78 -9  1037.1  768  321           
12 17.01.17 тихо ()   1000 м    ясно 
-12.2 -15.2 78 -12  1037.4  0.1  768  325           
15 17.01.17 260 (З) 1000 м    ясно 
-12.4 -15 81 -12  1037.1  -0.2  767  325    -8.8       
18 17.01.17 230 (ЮЗ) 1000 м    ясно 
-14.3 -16 87 -14  1036.5  -0.8  767  327           
21 17.01.17 тихо ()   1000 м    ясно 
-15.8 -17.4 87 -16  1035.9  -0.6  766  329           
00 18.01.17 тихо ()   1000 м    ясно 
-18.4 -20.3 85 -18  1035.3  -0.7  766  333           
03 18.01.17 тихо ()   1000 м    ясно 
-18.7 -20.8 83 -19  1034.2  -1.2  765  333  -18.9      59  равномерный
сухой снег
100% 
06 18.01.17 170 (Ю) 4000 м  дым  ясно 
-19 -21.1 83 -19  1033.3  -0.8  764  333  -20.4         
09 18.01.17 150 (ЮВ) 20000 м    ясно 
-16.2 -18.4 83 -16  1032.4  -0.8  764  329           
12 18.01.17 160 (Ю) 1000 м    ясно 
-16.6 -18.6 85 -17  1030.8  -1.5  763  329           
15 18.01.17 тихо ()   1000 м    ясно 
-19.1 -21.1 84 -19  1029.6  -1.3  762  332    -15.5       
18 18.01.17 тихо ()   1000 м  дым  ясно 
-18.7 -20.7 84 -19  1028.1  -1.5  761  331           
21 18.01.17 тихо ()   1000 м    3/0 верхняя 
[Ci fib]
-19.2 -21.4 83 -19  1026.8  -1.3  760  331           
00 19.01.17 тихо ()   1000 м    ясно 
-18.6 -20.7 83 -19  1025.8  -0.9  759  330           
03 19.01.17 200 (Ю) 1000 м    ясно 
-20.2 -22.5 82 -20  1024  -1.9  757  331  -20.2      59  равномерный
сухой снег
100% 
06 19.01.17 200 (Ю) н/о    н/о 
-19.8 -22 83 -20  1024.1  -1.2  758  331  -21.1         
09 19.01.17 тихо ()   20000 м    ясно 
-16.8 -19 83 -17  1022.3  -1.6  756  326           
12 19.01.17 тихо ()   1000 м    ясно 
-18.7 -20.9 83 -19  1021.4  -1  756  328           
15 19.01.17 260 (З) 1000 м    ясно 
-17.7 -19.7 84 -18  1019.1  -2.2  754  326    -16.1       
18 19.01.17 250 (З) 1000 м    ясно 
-17.5 -19.5 84 -18  1016.7  -2.3  752  325           
Время (UTC), дата Ветер
(°,м/с) 
Видим.   Явления Облачность Т
(°С)
Тd
(°С)
f(%) Тe
(°С)
Pmin
(гПа)
dP
(гПа)
Po
(мм)
O2
(г/м3)
Тmin Tmax R s Состояние
почвы

Для получения пояснительной информации подведите курсор к названию столбца.

ПОГОДА в Туринске - архив

Всё, что Вы хотите узнать о погоде в Туринске - удобно и подробно!

Выберите нужную дату (начиная с 1 января 2015* года) и нажмите кнопку "Найти".
Будут отображены архивные сводки погоды по пункту Туринск, начиная с указанной даты.


Отображать данные в формате CSV (для использования в таблицах Excel)


Внимание! Наш архив погоды предназначен исключительно для личного некоммерческого использования в познавательных целях. Если Вам необходимы официальные справки о состоянии погоды (для производственных, юридических, коммерческих и т.п. целей), обращайтесь в органы Росгидромета.

*Примечание: данная дата относится к архиву по метеостанциям СССР (Россия, СНГ, Балтия).
Архив по метеостанциям Зарубежной Европы и Азии (кроме Китая) хранится 10 дней, по другим регионам земного шара (Китай, Африка, Америка, Австралия, Океания) - 1 день.

Туринск - район местоположения метеостанции


Название, широта, долгота, высота метеостанции:
Туринск 58.1°ш. 63.7°д. 103 м над ур. моря [Российская Федерация]

Дополнительная информация

В oтличие oт бoльшинства пoгoдных сайтoв мы публикуем пoдрoбную метеoинфoрмацию в детальнoм прoфессиoнальнoм фoрмате.

Характеристики температуры и влажнoсти вoздуха измеряются на высoте 2 м в тени вдали oт зданий и деревьев.
Скoрoсть ветра измеряется на высoте 10 м (на урoвне рoста челoвека скoрoсть ветра ниже в 1.5-2 раза). Если метеoстанция нахoдится в гoрoде или в лесу, тo скoрoсть ветра занижена на 2-4 м/с пo сравнению с oткрытым местoм. Скoрoсть ветра над акватoриями крупных рек и oзёр, а также на вершинах хoлмoв на 2-5 м/с выше, чем в oбычных услoвиях.
Атмoсфернoе давление в разных тoчках местнoсти мoжет значительнo oтличаться oт давления на метеoстанции, в зависимoсти oт услoвий рельефа (при пoдъёме на 10 м давление пoнижается примернo на 1 мм рт.ст.).